When you browse on this site, cookies collect data to enhance your experience and personalize the content and advertising you see.
Visit our Privacy Policy to learn more. By continuing to use the site, you agree to this use of cookies and data.
EN

Hourly Weather Dichnya

Today, 4 August, Tuesday

Time Temperature Precipitation Wind Pressure Humidity
00:00 +15°C° 0 mm 1 mps 745 mmHg 72%
01:00 +15°C° 0 mm 1 mps 745 mmHg 73%
02:00 +14°C° 0 mm 1 mps 745 mmHg 75%
03:00 +14°C° 0 mm 1 mps 745 mmHg 76%
04:00 +14°C° 0 mm 1 mps 745 mmHg 77%
05:00 +14°C° 0 mm 1 mps 746 mmHg 79%
06:00 +16°C° 0 mm 1 mps 746 mmHg 73%
07:00 +19°C° 0 mm 1 mps 746 mmHg 68%
08:00 +20°C° 0 mm 1 mps 746 mmHg 63%
09:00 +21°C° 0 mm 1 mps 746 mmHg 60%
10:00 +21°C° 0 mm 2 mps 746 mmHg 56%
11:00 +23°C° 0 mm 2 mps 746 mmHg 53%
12:00 +24°C° 0 mm 1 mps 746 mmHg 51%
13:00 +24°C° 0 mm 1 mps 746 mmHg 50%
14:00 +25°C° 0 mm 1 mps 746 mmHg 49%
15:00 +25°C° 0 mm 1 mps 746 mmHg 51%
16:00 +25°C° 0 mm 1 mps 746 mmHg 53%
17:00 +24°C° 0 mm 1 mps 745 mmHg 55%
18:00 +23°C° 0 mm 1 mps 746 mmHg 58%
19:00 +21°C° 0 mm 1 mps 746 mmHg 62%
20:00 +19°C° 0 mm 1 mps 746 mmHg 65%
21:00 +19°C° 0 mm 1 mps 746 mmHg 67%
22:00 +18°C° 0 mm 1 mps 746 mmHg 68%
23:00 +18°C° 0 mm 1 mps 746 mmHg 70%

Tomorrow, 5 August, Wednesday

Time Temperature Precipitation Wind Pressure Humidity
00:00 +16°C° 0 mm 1 mps 746 mmHg 71%
01:00 +16°C° 0 mm 1 mps 746 mmHg 72%
02:00 +15°C° 0 mm 1 mps 746 mmHg 73%
03:00 +15°C° 0 mm 1 mps 746 mmHg 75%
04:00 +15°C° 0 mm 1 mps 746 mmHg 76%
05:00 +15°C° 0 mm 1 mps 746 mmHg 78%
06:00 +18°C° 0 mm 1 mps 746 mmHg 72%
07:00 +20°C° 0 mm 1 mps 747 mmHg 67%
08:00 +22°C° 0 mm 1 mps 747 mmHg 62%
09:00 +23°C° 0 mm 1 mps 747 mmHg 59%
10:00 +24°C° 0 mm 1 mps 747 mmHg 55%
11:00 +25°C° 0 mm 1 mps 747 mmHg 52%
12:00 +26°C° 0 mm 1 mps 747 mmHg 50%
13:00 +26°C° 0 mm 1 mps 747 mmHg 49%
14:00 +27°C° 0 mm 1 mps 747 mmHg 47%
15:00 +26°C° 0 mm 1 mps 747 mmHg 51%
16:00 +26°C° 0 mm 1 mps 746 mmHg 54%
17:00 +26°C° 0 mm 1 mps 746 mmHg 57%
18:00 +24°C° 0 mm 1 mps 746 mmHg 61%
19:00 +23°C° 0 mm 1 mps 746 mmHg 65%
20:00 +21°C° 0 mm 1 mps 746 mmHg 69%
21:00 +20°C° 0 mm 1 mps 747 mmHg 70%
22:00 +20°C° 0 mm 1 mps 747 mmHg 72%
23:00 +18°C° 0 mm 2 mps 747 mmHg 74%

Day after tomorrow, 6 August, Thursday

Time Temperature Precipitation Wind Pressure Humidity
00:00 +19°C° 0 mm 1 mps 747 mmHg 76%
01:00 +18°C° 0 mm 1 mps 747 mmHg 78%
02:00 +18°C° 0 mm 1 mps 747 mmHg 80%
03:00 +18°C° 0 mm 1 mps 747 mmHg 81%
04:00 +18°C° 0 mm 1 mps 747 mmHg 82%
05:00 +18°C° 0 mm 1 mps 747 mmHg 83%
06:00 +19°C° 0 mm 2 mps 747 mmHg 78%
07:00 +20°C° 0 mm 2 mps 747 mmHg 73%
08:00 +23°C° 0 mm 2 mps 748 mmHg 67%
09:00 +24°C° 0 mm 2 mps 748 mmHg 63%
10:00 +25°C° 0 mm 3 mps 748 mmHg 59%
11:00 +26°C° 0 mm 3 mps 748 mmHg 54%
12:00 +27°C° 0 mm 3 mps 748 mmHg 53%
13:00 +27°C° 0 mm 3 mps 747 mmHg 51%
14:00 +28°C° 0 mm 3 mps 747 mmHg 50%
15:00 +27°C° 0 mm 3 mps 747 mmHg 53%
16:00 +27°C° 0 mm 2 mps 747 mmHg 57%
17:00 +27°C° 0 mm 2 mps 747 mmHg 61%
18:00 +25°C° 0 mm 2 mps 747 mmHg 65%
19:00 +23°C° 0 mm 1 mps 747 mmHg 69%
20:00 +22°C° 0 mm 1 mps 747 mmHg 73%
21:00 +21°C° 0 mm 1 mps 747 mmHg 75%
22:00 +21°C° 0 mm 1 mps 747 mmHg 77%
23:00 +21°C° 0 mm 1 mps 747 mmHg 79%

7 August, Friday

Time Temperature Precipitation Wind Pressure Humidity
00:00 +19°C° 0 mm 2 mps 747 mmHg 83%
01:00 +19°C° 0 mm 2 mps 747 mmHg 86%
02:00 +18°C° 0 mm 2 mps 747 mmHg 90%
03:00 +18°C° 0 mm 3 mps 747 mmHg 92%
04:00 +18°C° 0 mm 3 mps 747 mmHg 94%
05:00 +18°C° 0 mm 4 mps 747 mmHg 96%
06:00 +19°C° 0 mm 4 mps 747 mmHg 91%
07:00 +19°C° 0 mm 5 mps 747 mmHg 85%
08:00 +20°C° 0 mm 5 mps 747 mmHg 80%
09:00 +21°C° 0 mm 5 mps 748 mmHg 74%
10:00 +22°C° 0 mm 5 mps 748 mmHg 69%
11:00 +24°C° 0 mm 6 mps 748 mmHg 63%
12:00 +24°C° 0 mm 6 mps 748 mmHg 61%
13:00 +24°C° 0 mm 6 mps 747 mmHg 60%
14:00 +24°C° 0 mm 6 mps 747 mmHg 58%
15:00 +24°C° 0 mm 6 mps 747 mmHg 60%
16:00 +23°C° 0 mm 5 mps 747 mmHg 62%
17:00 +23°C° 0 mm 5 mps 747 mmHg 64%
18:00 +21°C° 0 mm 4 mps 747 mmHg 68%
19:00 +20°C° 0 mm 4 mps 747 mmHg 72%
20:00 +19°C° 0 mm 4 mps 747 mmHg 76%
21:00 +18°C° 0 mm 4 mps 747 mmHg 78%
22:00 +17°C° 0 mm 4 mps 747 mmHg 79%
23:00 +17°C° 0 mm 4 mps 747 mmHg 81%

8 August, Saturday

Time Temperature Precipitation Wind Pressure Humidity
00:00 +15°C° 0 mm 4 mps 747 mmHg 83%
01:00 +15°C° 0 mm 4 mps 747 mmHg 85%
02:00 +14°C° 0 mm 3 mps 747 mmHg 86%
03:00 +14°C° 0 mm 4 mps 747 mmHg 86%
04:00 +14°C° 0 mm 4 mps 747 mmHg 86%
05:00 +14°C° 0 mm 4 mps 747 mmHg 86%
06:00 +15°C° 0 mm 4 mps 747 mmHg 82%
07:00 +17°C° 0 mm 5 mps 747 mmHg 78%
08:00 +19°C° 0 mm 5 mps 747 mmHg 73%
09:00 +20°C° 0 mm 5 mps 747 mmHg 68%
10:00 +22°C° 0 mm 6 mps 747 mmHg 63%
11:00 +23°C° 0 mm 6 mps 747 mmHg 57%
12:00 +23°C° 0 mm 6 mps 746 mmHg 57%
13:00 +23°C° 0 mm 6 mps 746 mmHg 57%
14:00 +23°C° 0 mm 6 mps 746 mmHg 57%
15:00 +22°C° 0 mm 5 mps 746 mmHg 59%
16:00 +22°C° 0 mm 5 mps 746 mmHg 61%
17:00 +22°C° 0 mm 5 mps 746 mmHg 64%
18:00 +20°C° 0 mm 4 mps 745 mmHg 68%
19:00 +19°C° 0 mm 4 mps 745 mmHg 73%
20:00 +17°C° 0 mm 3 mps 745 mmHg 77%
21:00 +17°C° 0 mm 3 mps 745 mmHg 79%
22:00 +16°C° 0 mm 3 mps 745 mmHg 81%
23:00 +16°C° 0 mm 3 mps 745 mmHg 83%

9 August, Sunday

Time Temperature Precipitation Wind Pressure Humidity
00:00 +14°C° 0 mm 3 mps 745 mmHg 85%
01:00 +13°C° 0 mm 3 mps 745 mmHg 87%
02:00 +13°C° 0 mm 3 mps 745 mmHg 89%
03:00 +13°C° 0 mm 3 mps 745 mmHg 90%
04:00 +13°C° 0 mm 3 mps 745 mmHg 90%
05:00 +12°C° 0 mm 3 mps 745 mmHg 91%
06:00 +14°C° 0 mm 4 mps 745 mmHg 84%
07:00 +15°C° 0 mm 4 mps 745 mmHg 77%
08:00 +17°C° 0 mm 4 mps 745 mmHg 70%
09:00 +18°C° 0 mm 4 mps 745 mmHg 67%
10:00 +17°C° 0 mm 5 mps 745 mmHg 65%
11:00 +19°C° 0 mm 5 mps 745 mmHg 62%
12:00 +19°C° 0 mm 5 mps 745 mmHg 62%
13:00 +19°C° 0 mm 5 mps 745 mmHg 62%
14:00 +19°C° 0 mm 5 mps 745 mmHg 61%
15:00 +19°C° 0 mm 4 mps 745 mmHg 62%
16:00 +19°C° 0 mm 4 mps 744 mmHg 62%
17:00 +19°C° 0 mm 4 mps 744 mmHg 62%
18:00 +18°C° 0 mm 3 mps 744 mmHg 67%
19:00 +16°C° 0 mm 3 mps 744 mmHg 72%
20:00 +15°C° 0 mm 2 mps 744 mmHg 77%
21:00 +15°C° 0 mm 2 mps 744 mmHg 79%
22:00 +14°C° 0 mm 2 mps 744 mmHg 82%
23:00 +13°C° 0 mm 3 mps 744 mmHg 85%
Show more